• In Netherlands
  • List of Countries
  • For 7 days
  • Water Temperature
  • Satellite Maps
  • Weather Map
  • Weather Widgets
  • user-avatar
    Login

    Hourly Weather Punta Gorda

    Today, 24 January, Wednesday

    Time Temperature Precipitation Wind Pressure Humidity
    00:00 +24°C° 0.3 mm 1 mps 761 mmHg 95%
    01:00 +23°C° 0.8 mm 1 mps 761 mmHg 96%
    02:00 +23°C° 0.8 mm 1 mps 761 mmHg 96%
    03:00 +23°C° 0.8 mm 1 mps 761 mmHg 96%
    04:00 +23°C° 0.9 mm 1 mps 761 mmHg 97%
    05:00 +23°C° 0.9 mm 1 mps 761 mmHg 97%
    06:00 +23°C° 0.9 mm 1 mps 761 mmHg 97%
    07:00 +24°C° 0.5 mm 1 mps 762 mmHg 91%
    08:00 +25°C° 0.5 mm 1 mps 763 mmHg 86%
    09:00 +27°C° 0.5 mm 1 mps 763 mmHg 81%
    10:00 +28°C° 0.3 mm 1 mps 763 mmHg 76%
    11:00 +29°C° 0.3 mm 1 mps 763 mmHg 70%
    12:00 +30°C° 0.3 mm 1 mps 762 mmHg 65%
    13:00 +30°C° 0.5 mm 1 mps 762 mmHg 68%
    14:00 +30°C° 0.5 mm 2 mps 761 mmHg 70%
    15:00 +30°C° 0.5 mm 2 mps 760 mmHg 73%
    16:00 +28°C° 0.4 mm 2 mps 760 mmHg 78%
    17:00 +27°C° 0.4 mm 2 mps 761 mmHg 83%
    18:00 +25°C° 0.4 mm 2 mps 761 mmHg 88%
    19:00 +24°C° 0.8 mm 1 mps 762 mmHg 90%
    20:00 +24°C° 0.8 mm 1 mps 762 mmHg 93%
    21:00 +23°C° 0.8 mm 1 mps 763 mmHg 95%
    22:00 +23°C° 0.8 mm 1 mps 763 mmHg 96%
    23:00 +23°C° 0.8 mm 1 mps 763 mmHg 96%

    Tomorrow, 25 January, Thursday

    Time Temperature Precipitation Wind Pressure Humidity
    00:00 +23°C° 0.8 mm 1 mps 763 mmHg 97%
    01:00 +23°C° 0.8 mm 1 mps 763 mmHg 97%
    02:00 +22°C° 0.8 mm 1 mps 763 mmHg 97%
    03:00 +22°C° 0.8 mm 1 mps 762 mmHg 98%
    04:00 +22°C° 0.5 mm 1 mps 762 mmHg 97%
    05:00 +21°C° 0.5 mm 2 mps 763 mmHg 97%
    06:00 +21°C° 0.5 mm 2 mps 763 mmHg 97%
    07:00 +23°C° 0.2 mm 2 mps 763 mmHg 91%
    08:00 +25°C° 0.2 mm 2 mps 764 mmHg 86%
    09:00 +26°C° 0.2 mm 2 mps 764 mmHg 80%
    10:00 +26°C° 0.5 mm 1 mps 764 mmHg 79%
    11:00 +27°C° 0.5 mm 1 mps 763 mmHg 78%
    12:00 +28°C° 0.5 mm 1 mps 763 mmHg 77%
    13:00 +28°C° 0.6 mm 1 mps 762 mmHg 77%
    14:00 +28°C° 0.6 mm 1 mps 762 mmHg 77%
    15:00 +28°C° 0.6 mm 1 mps 761 mmHg 76%
    16:00 +27°C° 0.2 mm 1 mps 761 mmHg 81%
    17:00 +26°C° 0.2 mm 1 mps 761 mmHg 85%
    18:00 +24°C° 0.2 mm 1 mps 762 mmHg 89%
    19:00 +24°C° 0.4 mm 1 mps 762 mmHg 91%
    20:00 +23°C° 0.4 mm 1 mps 763 mmHg 94%
    21:00 +23°C° 0.4 mm 1 mps 763 mmHg 96%
    22:00 +23°C° 0.4 mm 1 mps 763 mmHg 96%
    23:00 +22°C° 0.4 mm 1 mps 763 mmHg 96%

    Day after tomorrow, 26 January, Friday

    Time Temperature Precipitation Wind Pressure Humidity
    00:00 +22°C° 0.4 mm 1 mps 763 mmHg 96%
    01:00 +22°C° 0.4 mm 1 mps 763 mmHg 96%
    02:00 +22°C° 0.4 mm 1 mps 762 mmHg 96%
    03:00 +22°C° 0.4 mm 1 mps 762 mmHg 96%
    04:00 +21°C° 0.2 mm 2 mps 762 mmHg 96%
    05:00 +21°C° 0.2 mm 2 mps 762 mmHg 96%
    06:00 +21°C° 0.2 mm 2 mps 762 mmHg 96%
    07:00 +23°C° 0.1 mm 2 mps 763 mmHg 92%
    08:00 +24°C° 0.1 mm 2 mps 763 mmHg 87%
    09:00 +26°C° 0.1 mm 2 mps 764 mmHg 82%
    10:00 +26°C° 0.6 mm 2 mps 763 mmHg 84%
    11:00 +26°C° 0.6 mm 1 mps 763 mmHg 85%
    12:00 +27°C° 0.6 mm 1 mps 763 mmHg 86%
    13:00 +27°C° 0.6 mm 1 mps 762 mmHg 85%
    14:00 +27°C° 0.6 mm 2 mps 761 mmHg 85%
    15:00 +27°C° 0.6 mm 2 mps 760 mmHg 84%
    16:00 +26°C° 0.1 mm 2 mps 760 mmHg 86%
    17:00 +25°C° 0.1 mm 1 mps 760 mmHg 88%
    18:00 +24°C° 0.1 mm 1 mps 760 mmHg 90%
    19:00 +24°C° 0.2 mm 1 mps 761 mmHg 92%
    20:00 +24°C° 0.2 mm 1 mps 761 mmHg 93%
    21:00 +23°C° 0.2 mm 1 mps 762 mmHg 95%
    22:00 +23°C° 0.7 mm 1 mps 762 mmHg 95%
    23:00 +23°C° 0.7 mm 1 mps 762 mmHg 96%

    27 January, Saturday

    Time Temperature Precipitation Wind Pressure Humidity
    00:00 +23°C° 0.7 mm 1 mps 761 mmHg 96%
    01:00 +23°C° 0.2 mm 1 mps 761 mmHg 96%
    02:00 +23°C° 0.2 mm 1 mps 761 mmHg 96%
    03:00 +23°C° 0.2 mm 1 mps 760 mmHg 95%
    04:00 +23°C° 0 mm 1 mps 760 mmHg 95%
    05:00 +23°C° 0 mm 1 mps 760 mmHg 95%
    06:00 +23°C° 0 mm 1 mps 761 mmHg 95%
    07:00 +24°C° 0 mm 1 mps 761 mmHg 89%
    08:00 +25°C° 0 mm 1 mps 761 mmHg 83%
    09:00 +27°C° 0 mm 1 mps 762 mmHg 77%
    10:00 +29°C° 0.1 mm 1 mps 761 mmHg 71%
    11:00 +30°C° 0.1 mm 1 mps 761 mmHg 64%
    12:00 +32°C° 0.1 mm 1 mps 760 mmHg 58%
    13:00 +32°C° 0.1 mm 1 mps 759 mmHg 57%
    14:00 +32°C° 0.1 mm 1 mps 758 mmHg 57%
    15:00 +32°C° 0.1 mm 2 mps 757 mmHg 56%
    16:00 +30°C° 0 mm 2 mps 758 mmHg 62%
    17:00 +28°C° 0 mm 2 mps 758 mmHg 69%
    18:00 +27°C° 0 mm 2 mps 758 mmHg 76%
    19:00 +26°C° 0 mm 2 mps 759 mmHg 81%
    20:00 +25°C° 0 mm 2 mps 760 mmHg 86%
    21:00 +24°C° 0 mm 2 mps 760 mmHg 91%
    22:00 +24°C° 0.2 mm 1 mps 760 mmHg 92%
    23:00 +24°C° 0.2 mm 1 mps 760 mmHg 93%

    28 January, Sunday

    Time Temperature Precipitation Wind Pressure Humidity
    00:00 +24°C° 0.2 mm 1 mps 760 mmHg 94%
    01:00 +23°C° 0.2 mm 1 mps 760 mmHg 94%
    02:00 +23°C° 0.2 mm 1 mps 760 mmHg 94%
    03:00 +23°C° 0.2 mm 1 mps 759 mmHg 94%
    04:00 +23°C° 0.3 mm 1 mps 760 mmHg 94%
    05:00 +23°C° 0.3 mm 1 mps 760 mmHg 93%
    06:00 +23°C° 0.3 mm 1 mps 760 mmHg 93%
    07:00 +25°C° 0.1 mm 1 mps 761 mmHg 87%
    08:00 +26°C° 0.1 mm 1 mps 761 mmHg 80%
    09:00 +28°C° 0.1 mm 1 mps 762 mmHg 74%
    10:00 +28°C° 0.6 mm 1 mps 761 mmHg 76%
    11:00 +28°C° 0.6 mm 1 mps 761 mmHg 79%
    12:00 +29°C° 0.6 mm 1 mps 760 mmHg 81%
    13:00 +28°C° 0.9 mm 1 mps 760 mmHg 85%
    14:00 +28°C° 0.9 mm 1 mps 759 mmHg 88%
    15:00 +28°C° 0.9 mm 1 mps 758 mmHg 91%
    16:00 +27°C° 0.4 mm 1 mps 758 mmHg 93%
    17:00 +26°C° 0.4 mm 1 mps 759 mmHg 95%
    18:00 +25°C° 0.4 mm 1 mps 759 mmHg 97%
    19:00 +24°C° 0.6 mm 1 mps 760 mmHg 97%
    20:00 +24°C° 0.6 mm 1 mps 760 mmHg 97%
    21:00 +24°C° 0.6 mm 1 mps 761 mmHg 97%
    22:00 +23°C° 0.5 mm 1 mps 761 mmHg 98%
    23:00 +23°C° 0.5 mm 1 mps 761 mmHg 98%

    29 January, Monday

    Time Temperature Precipitation Wind Pressure Humidity
    00:00 +23°C° 0.5 mm 1 mps 761 mmHg 98%
    01:00 +23°C° 0.3 mm 1 mps 761 mmHg 98%
    02:00 +23°C° 0.3 mm 1 mps 760 mmHg 98%
    03:00 +23°C° 0.3 mm 1 mps 760 mmHg 98%
    04:00 +23°C° 0.3 mm 1 mps 761 mmHg 98%
    05:00 +23°C° 0.3 mm 1 mps 761 mmHg 97%
    06:00 +22°C° 0.3 mm 1 mps 761 mmHg 97%
    07:00 +24°C° 0.2 mm 2 mps 762 mmHg 93%
    08:00 +25°C° 0.2 mm 2 mps 762 mmHg 89%
    09:00 +26°C° 0.2 mm 2 mps 763 mmHg 85%
    10:00 +26°C° 0.6 mm 1 mps 762 mmHg 86%
    11:00 +26°C° 0.6 mm 1 mps 762 mmHg 87%
    12:00 +27°C° 0.6 mm 1 mps 762 mmHg 89%
    13:00 +27°C° 1 mm 1 mps 761 mmHg 89%
    14:00 +27°C° 1 mm 1 mps 760 mmHg 90%
    15:00 +27°C° 1 mm 1 mps 760 mmHg 91%
    16:00 +26°C° 0.7 mm 1 mps 760 mmHg 92%
    17:00 +25°C° 0.7 mm 1 mps 761 mmHg 94%
    18:00 +25°C° 0.7 mm 1 mps 761 mmHg 96%
    19:00 +24°C° 0.7 mm 1 mps 762 mmHg 97%
    20:00 +24°C° 0.7 mm 1 mps 762 mmHg 97%
    21:00 +24°C° 0.7 mm 1 mps 763 mmHg 98%
    22:00 +23°C° 0.7 mm 1 mps 763 mmHg 98%
    23:00 +23°C° 0.7 mm 1 mps 762 mmHg 98%
    Show more